Location: Little Chesterford
(52.0500°N, 0.1833°E)
Time: 13:15:13
(UTC+00:00)

Okean 3 - Pass Details

Date: 26 September 2023
Orbit: 567 x 588 km, 82.5° (Epoch: 28 November)

Event Time Altitude Azimuth Distance (km) Brightness Sun altitude
Rises 18:51:47 0° 348° (NNW) 2,782 7.2 -10.4°
Reaches altitude 10° 18:53:58 10° 347° (NNW) 1,879 6.4 -10.8°
Maximum altitude 18:58:06 78° 263° (W) 587 3.5 -11.4°
Drops below altitude 10° 19:02:12 10° 176° (S) 1,865 5.8 -12.0°
Sets 19:04:23 0° 175° (S) 2,759 6.7 -12.3°
